Weather History for Pittsburgh, PA

Change the Weather History Date:

Friday, August 24, 2012

  Actual Average Record
Temperature  
Mean Temperature 73 °F 71 °F  
Max Temperature 87 °F 81 °F 94 °F (1918)
Min Temperature 58 °F 61 °F 45 °F (1890)
Degree Days  
Heating Degree Days 0 0  
Month to date heating degree days 2 0  
Since 1 June heating degree days 28 42  
Since 1 July heating degree days 2 4  
Cooling Degree Days 8 6  
Month to date cooling degree days 160 168  
Year to date cooling degree days 868 611  
Since 1 June cooling degree days 719 559  
Growing Degree Days 22 (Base 50)    
Moisture  
Dew Point 57 °F    
Average Humidity 61    
Maximum Humidity 90    
Minimum Humidity 32    
Precipitation  
Precipitation 0.00 in 0.10 in 1.09 in (1934)
Month to date precipitation 2.60 2.71  
Year to date precipitation 26.54 25.94  
Snow  
Snow 0.00 in 0.00 in 0.00 in (2002)
Month to date snowfall 0.0 0.0  
Since 1 July snowfall 0.0 0.0  
Snow Depth 0.00 in    
Sea Level Pressure  
Sea Level Pressure 30.16 in    
Wind  
Wind Speed 2 mph (ESE)    
Max Wind Speed 10 mph    
Max Gust Speed 16 mph    
Visibility 9 miles    
Events Fog    
T = Trace of Precipitation, MM = Missing Value Source: NWS Daily Summary

Daily Weather History Graph

Daily Weather History Graph

Search for Another Location

Airport:

Trip Planner

Search our weather history database for the weather conditions in past years. The results will help you decide how hot, cold, wet, or windy it might be!

Date:

Astronomy

Aug. 24, 2012 Rise Set
Actual Time 6:40 AM EDT 8:04 PM EDT
Civil Twilight 6:12 AM EDT 8:32 PM EDT
Nautical Twilight 5:38 AM EDT 9:07 PM EDT
Astronomical Twilight 5:01 AM EDT 9:43 PM EDT
Moon 2:33 PM EDT (8/24) No Moon Set
Length of Visible Light 14h 20m
Length of Day
13h 23m
Waxing Crescent, 51% of the Moon is Illuminated
Aug 24
Waxing Crescent
Aug 31
Full
Sep 8
Last Quarter
Sep 15
New
Sep 22
First Quarter

Hourly Weather History & Observations

Time (EDT) Temp. Heat Index Dew Point Humidity Pressure Visibility Wind Dir Wind Speed Gust Speed Precip Events Conditions
12:51 AM 64.0 °F - 57.9 °F 80% 30.16 in 9.0 mi Calm Calm - N/A   Clear
1:51 AM 62.1 °F - 57.0 °F 84% 30.16 in 9.0 mi Calm Calm - N/A   Clear
2:51 AM 63.0 °F - 57.0 °F 81% 30.16 in 9.0 mi Calm Calm - N/A   Clear
3:51 AM 60.1 °F - 57.0 °F 90% 30.16 in 6.0 mi Calm Calm - N/A   Clear
4:51 AM 60.1 °F - 55.9 °F 86% 30.15 in 7.0 mi Calm Calm - N/A Fog Patches of Fog
5:51 AM 60.1 °F - 55.0 °F 83% 30.16 in 9.0 mi Calm Calm - N/A   Clear
6:51 AM 59.0 °F - 55.0 °F 87% 30.18 in 6.0 mi Calm Calm - N/A   Partly Cloudy
7:51 AM 61.0 °F - 57.0 °F 87% 30.19 in 6.0 mi Calm Calm - N/A   Partly Cloudy
8:51 AM 66.9 °F - 60.1 °F 79% 30.20 in 6.0 mi Calm Calm - N/A   Haze
9:51 AM 71.1 °F - 61.0 °F 70% 30.20 in 9.0 mi Variable 3.5 mph - N/A   Partly Cloudy
10:51 AM 75.9 °F - 61.0 °F 60% 30.20 in 10.0 mi Calm Calm - N/A   Partly Cloudy
11:51 AM 79.0 °F - 61.0 °F 54% 30.19 in 10.0 mi Calm Calm - N/A   Scattered Clouds
12:51 PM 82.9 °F 82.0 °F 55.0 °F 38% 30.18 in 10.0 mi Calm Calm - N/A   Partly Cloudy
1:51 PM 84.0 °F - 51.1 °F 32% 30.16 in 10.0 mi Calm Calm - N/A   Partly Cloudy
2:51 PM 84.0 °F 82.6 °F 54.0 °F 35% 30.15 in 10.0 mi South 5.8 mph - N/A   Partly Cloudy
3:51 PM 86.0 °F 84.2 °F 54.0 °F 33% 30.13 in 10.0 mi ESE 10.4 mph 16.1 mph N/A   Scattered Clouds
4:51 PM 86.0 °F 84.2 °F 54.0 °F 33% 30.12 in 10.0 mi Variable 4.6 mph - N/A   Partly Cloudy
5:51 PM 84.0 °F 82.6 °F 54.0 °F 35% 30.12 in 10.0 mi East 4.6 mph - N/A   Scattered Clouds
6:51 PM 84.0 °F 82.6 °F 54.0 °F 35% 30.12 in 10.0 mi Calm Calm - N/A   Scattered Clouds
7:51 PM 81.0 °F 80.8 °F 55.9 °F 42% 30.13 in 10.0 mi ESE 4.6 mph - N/A   Scattered Clouds
8:51 PM 77.0 °F - 57.0 °F 50% 30.14 in 10.0 mi East 5.8 mph - N/A   Scattered Clouds
9:51 PM 75.9 °F - 57.9 °F 54% 30.15 in 10.0 mi Calm Calm - N/A   Partly Cloudy
10:51 PM 73.9 °F - 59.0 °F 59% 30.16 in 10.0 mi SE 4.6 mph - N/A   Partly Cloudy
11:51 PM 73.0 °F - 59.0 °F 61% 30.16 in 10.0 mi SE 4.6 mph - N/A   Clear